World > North America > United States > Georgia

Uvalda, Georgia Regional Weather

Lat: 32.04N, Lon: 82.51W
Wx Zone: GAZ112
Warning NWS WEATHER ALERT - (More Info. Click Here) Warning
Feedback

Uvalda, GA Regional Weather

Expires:201910160500;;776583
ASUS42 KFFC 160410
RWRGA 
WEATHER ROUNDUP FOR GEORGIA
NATIONAL WEATHER SERVICE PEACHTREE CITY GA
1200 AM EDT WED OCT 16 2019

NOTE: "FAIR" INDICATES FEW OR NO CLOUDS BELOW 12,000 FEET WITH NO
SIGNIFICANT WEATHER AND/OR OBSTRUCTIONS TO VISIBILITY. 

* = USE WITH CAUTION. THE STATIONS MARKED WITH AN ASTERISK MAY NOT
REPORT WEATHER SUCH AS PRECIPITATION, FOG, OR THUNDER AND ARE NOT 
QUALITY CONTROLLED BY NWS.

THE REMARK "TC" DENOTES TEMPERATURE READING IN DEGREES CELSIUS.


GAZ099>101-110>166-160500-
SOUTH GEORGIA
  
CITY           SKY/WX    TMP DP  RH WIND       PRES   REMARKS
SAVANNAH       LGT RAIN  71  71 100 CALM      29.96F FOG              
VALDOSTA       LGT RAIN  72  70  93 S6        29.95R                  
ALMA           RAIN      68  68 100 CALM      29.93S FOG              
ST SIMONS      LGT RAIN  77  72  84 SE7       29.94F                  
FT STEWART     HVY RAIN  70  69  97 CALM      29.94F FOG              
ALBANY         HVY RAIN  69  67  93 E13       29.94F FOG              
HUNTER AFB     LGT RAIN  71  70  94 CALM      29.94F                  
MOODY AFB      HVY RAIN  70  70 100 S17       29.94R FOG              
BRUNSWICK      LGT RAIN  73  72  98 NE6       29.95S                  

  
CITY           SKY/WX    TMP DP  RH WIND       PRES   REMARKS
BAINBRIDGE*    CLOUDY    73  72  98 S3        29.92S                  
MOULTRIE*      RAIN      70  68  94 S3        29.95R                  
VIDALIA*       LGT RAIN  70  64  83 E3        29.96F                  
WAYCROSS*      RAIN      72  67  84 SE5       29.93F                  
DOUGLAS*       RAIN      70  68  94 CALM      29.97S                  
$$
  

SKY/WX - Weather  TMP - Temperature  DP - Dew Point  RH - Relative Humidity
WIND - Wind Direction/Speed PRES - Barometric Pressure VSB - Visibility
WCI - Wind Chill Index E13G22 Wind - East Wind 13 mph/Gusts of 22 mph